• In United Kingdom
  • List of Countries
  • For 7 days
  • Water Temperature
  • Satellite Maps
  • Weather Map
  • Weather Widgets
  • user-avatar
    Login

    Hourly Weather Chihuahua

    Today, 18 August, Friday

    Time Temperature Precipitation Wind Pressure Humidity
    00:00 +26°C° 0.6 mm 1 mps 644 mmHg 61%
    01:00 +26°C° 0.6 mm 1 mps 644 mmHg 62%
    02:00 +26°C° 0.6 mm 1 mps 644 mmHg 64%
    03:00 +25°C° 0.9 mm 1 mps 644 mmHg 66%
    04:00 +25°C° 0.9 mm 1 mps 644 mmHg 68%
    05:00 +25°C° 0.9 mm 1 mps 644 mmHg 69%
    06:00 +25°C° 0.3 mm 1 mps 644 mmHg 66%
    07:00 +26°C° 0.3 mm 1 mps 644 mmHg 62%
    08:00 +26°C° 0.3 mm 1 mps 645 mmHg 59%
    09:00 +27°C° 0.3 mm 1 mps 645 mmHg 54%
    10:00 +29°C° 0.3 mm 1 mps 645 mmHg 49%
    11:00 +30°C° 0.3 mm 1 mps 645 mmHg 45%
    12:00 +30°C° 0.2 mm 2 mps 645 mmHg 43%
    13:00 +31°C° 0.2 mm 2 mps 645 mmHg 40%
    14:00 +33°C° 0.2 mm 3 mps 644 mmHg 38%
    15:00 +33°C° 0.1 mm 3 mps 644 mmHg 39%
    16:00 +33°C° 0.1 mm 3 mps 644 mmHg 39%
    17:00 +33°C° 0.1 mm 3 mps 644 mmHg 39%
    18:00 +31°C° 0.2 mm 3 mps 644 mmHg 43%
    19:00 +30°C° 0.2 mm 3 mps 644 mmHg 47%
    20:00 +29°C° 0.2 mm 2 mps 644 mmHg 51%
    21:00 +27°C° 1.4 mm 4 mps 644 mmHg 57%
    22:00 +26°C° 1.4 mm 5 mps 644 mmHg 64%
    23:00 +24°C° 1.4 mm 6 mps 644 mmHg 70%

    Tomorrow, 19 August, Saturday

    Time Temperature Precipitation Wind Pressure Humidity
    00:00 +23°C° 2.1 mm 5 mps 643 mmHg 71%
    01:00 +23°C° 2.1 mm 4 mps 643 mmHg 71%
    02:00 +22°C° 2.1 mm 3 mps 643 mmHg 72%
    03:00 +23°C° 0.6 mm 2 mps 643 mmHg 73%
    04:00 +23°C° 0.6 mm 2 mps 643 mmHg 73%
    05:00 +23°C° 0.6 mm 1 mps 643 mmHg 74%
    06:00 +24°C° 0.1 mm 1 mps 643 mmHg 70%
    07:00 +24°C° 0.1 mm 1 mps 643 mmHg 66%
    08:00 +24°C° 0.1 mm 1 mps 644 mmHg 62%
    09:00 +26°C° 0 mm 1 mps 644 mmHg 58%
    10:00 +27°C° 0 mm 2 mps 644 mmHg 53%
    11:00 +29°C° 0 mm 2 mps 644 mmHg 48%
    12:00 +29°C° 0.3 mm 3 mps 644 mmHg 46%
    13:00 +30°C° 0.3 mm 3 mps 643 mmHg 45%
    14:00 +31°C° 0.3 mm 3 mps 643 mmHg 44%
    15:00 +30°C° 0.7 mm 3 mps 643 mmHg 44%
    16:00 +30°C° 0.7 mm 3 mps 643 mmHg 45%
    17:00 +30°C° 0.7 mm 3 mps 642 mmHg 46%
    18:00 +29°C° 1 mm 3 mps 643 mmHg 48%
    19:00 +29°C° 1 mm 3 mps 643 mmHg 51%
    20:00 +28°C° 1 mm 3 mps 643 mmHg 53%
    21:00 +27°C° 2.4 mm 3 mps 643 mmHg 57%
    22:00 +27°C° 2.4 mm 4 mps 643 mmHg 60%
    23:00 +26°C° 2.4 mm 5 mps 643 mmHg 63%

    Day after tomorrow, 20 August, Sunday

    Time Temperature Precipitation Wind Pressure Humidity
    00:00 +25°C° 3.7 mm 4 mps 642 mmHg 67%
    01:00 +24°C° 3.7 mm 3 mps 642 mmHg 70%
    02:00 +22°C° 3.7 mm 3 mps 642 mmHg 73%
    03:00 +23°C° 1.5 mm 2 mps 642 mmHg 74%
    04:00 +21°C° 1.5 mm 2 mps 642 mmHg 75%
    05:00 +22°C° 1.5 mm 1 mps 642 mmHg 77%
    06:00 +23°C° 0.3 mm 1 mps 642 mmHg 72%
    07:00 +24°C° 0.3 mm 1 mps 642 mmHg 68%
    08:00 +22°C° 0.3 mm 0 mps 643 mmHg 64%
    09:00 +25°C° 0.1 mm 1 mps 643 mmHg 60%
    10:00 +27°C° 0.1 mm 1 mps 643 mmHg 56%
    11:00 +28°C° 0.1 mm 1 mps 643 mmHg 52%
    12:00 +29°C° 0.8 mm 2 mps 643 mmHg 49%
    13:00 +30°C° 0.8 mm 2 mps 643 mmHg 47%
    14:00 +31°C° 0.8 mm 3 mps 642 mmHg 44%
    15:00 +31°C° 0.4 mm 3 mps 642 mmHg 44%
    16:00 +31°C° 0.4 mm 2 mps 642 mmHg 45%
    17:00 +31°C° 0.4 mm 2 mps 642 mmHg 45%
    18:00 +29°C° 2.8 mm 3 mps 642 mmHg 52%
    19:00 +28°C° 2.8 mm 4 mps 642 mmHg 59%
    20:00 +26°C° 2.8 mm 6 mps 642 mmHg 66%
    21:00 +25°C° 6.7 mm 5 mps 643 mmHg 70%
    22:00 +23°C° 6.7 mm 4 mps 643 mmHg 74%
    23:00 +21°C° 6.7 mm 3 mps 643 mmHg 79%

    21 August, Monday

    Time Temperature Precipitation Wind Pressure Humidity
    00:00 +21°C° 1.5 mm 3 mps 643 mmHg 78%
    01:00 +21°C° 1.5 mm 2 mps 643 mmHg 78%
    02:00 +21°C° 1.5 mm 2 mps 643 mmHg 77%
    03:00 +22°C° 0.3 mm 1 mps 643 mmHg 78%
    04:00 +22°C° 0.3 mm 1 mps 643 mmHg 78%
    05:00 +20°C° 0.3 mm 0 mps 643 mmHg 78%
    06:00 +23°C° 0 mm 1 mps 643 mmHg 75%
    07:00 +24°C° 0 mm 1 mps 644 mmHg 71%
    08:00 +24°C° 0 mm 1 mps 644 mmHg 68%
    09:00 +26°C° 0.2 mm 2 mps 644 mmHg 63%
    10:00 +27°C° 0.2 mm 2 mps 645 mmHg 57%
    11:00 +28°C° 0.2 mm 3 mps 645 mmHg 52%
    12:00 +29°C° 0.7 mm 3 mps 644 mmHg 50%
    13:00 +30°C° 0.7 mm 3 mps 644 mmHg 48%
    14:00 +30°C° 0.7 mm 3 mps 644 mmHg 45%
    15:00 +30°C° 0.2 mm 2 mps 644 mmHg 45%
    16:00 +30°C° 0.2 mm 2 mps 644 mmHg 44%
    17:00 +30°C° 0.2 mm 2 mps 644 mmHg 44%
    18:00 +30°C° 0.2 mm 2 mps 644 mmHg 48%
    19:00 +29°C° 0.2 mm 1 mps 644 mmHg 53%
    20:00 +28°C° 0.2 mm 1 mps 644 mmHg 57%
    21:00 +27°C° 0.6 mm 2 mps 645 mmHg 59%
    22:00 +27°C° 0.6 mm 2 mps 645 mmHg 61%
    23:00 +26°C° 0.6 mm 2 mps 645 mmHg 62%

    22 August, Tuesday

    Time Temperature Precipitation Wind Pressure Humidity
    00:00 +26°C° 0.5 mm 2 mps 645 mmHg 65%
    01:00 +25°C° 0.5 mm 2 mps 644 mmHg 67%
    02:00 +24°C° 0.5 mm 2 mps 644 mmHg 70%
    03:00 +24°C° 0.1 mm 2 mps 644 mmHg 70%
    04:00 +24°C° 0.1 mm 2 mps 644 mmHg 71%
    05:00 +24°C° 0.1 mm 1 mps 644 mmHg 72%
    06:00 +25°C° 0.1 mm 1 mps 644 mmHg 68%
    07:00 +25°C° 0.1 mm 1 mps 645 mmHg 65%
    08:00 +26°C° 0.1 mm 1 mps 646 mmHg 61%
    09:00 +27°C° 0.7 mm 1 mps 646 mmHg 58%
    10:00 +28°C° 0.7 mm 2 mps 646 mmHg 55%
    11:00 +29°C° 0.7 mm 2 mps 646 mmHg 51%
    12:00 +30°C° 0.4 mm 2 mps 645 mmHg 47%
    13:00 +31°C° 0.4 mm 1 mps 645 mmHg 44%
    14:00 +31°C° 0.4 mm 1 mps 645 mmHg 40%
    15:00 +31°C° 0 mm 1 mps 645 mmHg 39%
    16:00 +32°C° 0 mm 1 mps 645 mmHg 39%
    17:00 +32°C° 0 mm 2 mps 645 mmHg 39%
    18:00 +31°C° 0.1 mm 2 mps 645 mmHg 43%
    19:00 +29°C° 0.1 mm 2 mps 645 mmHg 48%
    20:00 +28°C° 0.1 mm 2 mps 644 mmHg 52%
    21:00 +28°C° 0.8 mm 1 mps 644 mmHg 55%
    22:00 +27°C° 0.8 mm 1 mps 644 mmHg 58%
    23:00 +27°C° 0.8 mm 1 mps 645 mmHg 60%

    23 August, Wednesday

    Time Temperature Precipitation Wind Pressure Humidity
    00:00 +26°C° 0.2 mm 1 mps 644 mmHg 61%
    01:00 +26°C° 0.2 mm 1 mps 644 mmHg 62%
    02:00 +25°C° 0.2 mm 1 mps 644 mmHg 63%
    03:00 +25°C° 0 mm 1 mps 644 mmHg 64%
    04:00 +25°C° 0 mm 1 mps 643 mmHg 65%
    05:00 +24°C° 0 mm 1 mps 643 mmHg 66%
    06:00 +25°C° 0 mm 1 mps 644 mmHg 62%
    07:00 +26°C° 0 mm 1 mps 644 mmHg 58%
    08:00 +27°C° 0 mm 1 mps 644 mmHg 53%
    09:00 +28°C° 0.2 mm 2 mps 645 mmHg 49%
    10:00 +29°C° 0.2 mm 2 mps 645 mmHg 46%
    11:00 +30°C° 0.2 mm 2 mps 645 mmHg 42%
    12:00 +31°C° 0.1 mm 2 mps 644 mmHg 40%
    13:00 +32°C° 0.1 mm 2 mps 644 mmHg 37%
    14:00 +32°C° 0.1 mm 2 mps 644 mmHg 35%
    15:00 +32°C° 0 mm 2 mps 644 mmHg 35%
    16:00 +32°C° 0 mm 2 mps 643 mmHg 36%
    17:00 +32°C° 0 mm 2 mps 643 mmHg 37%
    18:00 +31°C° 0 mm 2 mps 643 mmHg 39%
    19:00 +30°C° 0 mm 2 mps 643 mmHg 42%
    20:00 +29°C° 0 mm 2 mps 643 mmHg 45%
    21:00 +28°C° 0.1 mm 2 mps 643 mmHg 48%
    22:00 +28°C° 0.1 mm 1 mps 642 mmHg 51%
    23:00 +27°C° 0.1 mm 1 mps 642 mmHg 54%
    Show more